CW9319 Weather Reports


time (UTC)temp
C
wind
direction
speed
KPH
gust
KPH
rain 1hr
cm
rain 24hr
cm
rain mn
cm
humidity
%
barometer
mb
20260504130637 15 191 11.3 19.3 0.00 0.00 0.00 77 1000.5
20260504130206 15 178 11.3 19.3 0.00 0.00 0.00 77 1001.1
20260504120203 12 203 4.8 9.7 0.00 0.00 0.00 84 1001.4
20260504110643 11 202 4.8 8.0 0.00 0.00 0.00 84 1001.5
20260504110215 11 211 4.8 9.7 0.00 0.00 0.00 85 1001.5
20260504100208 12 207 6.4 9.7 0.00 0.00 0.00 83 1002.0
20260504081641 12 222 4.8 11.3 0.00 0.00 0.00 78 1002.3
20260504081150 12 209 6.4 11.3 0.00 0.00 0.00 79 1002.3
20260504080646 12 208 6.4 11.3 0.00 0.00 0.00 78 1002.3
20260504080134 12 192 3.2 6.4 0.00 0.00 0.00 78 1002.2
20260504070142 12 216 6.4 9.7 0.00 0.00 0.00 74 1002.7
20260504060138 15 239 3.2 6.4 0.00 0.00 0.00 68 1003.2
20260504050639 15 229 3.2 4.8 0.00 0.00 0.00 68 1003.7
20260504050149 15 229 1.6 3.2 0.00 0.00 0.00 68 1003.8
20260504045637 15 229 3.2 4.8 0.00 0.00 0.00 67 1003.8
20260504045149 15 229 3.2 4.8 0.00 0.00 0.00 67 1003.8
20260504044658 15 229 3.2 4.8 0.00 0.00 0.00 66 1003.9
20260504044147 15 229 1.6 8.0 0.00 0.00 0.00 66 1003.9
20260504043653 15 229 4.8 8.0 0.00 0.00 0.00 66 1003.9
20260504043139 15 231 4.8 6.4 0.00 0.00 0.00 66 1004.1
20260504042645 15 238 3.2 8.0 0.00 0.00 0.00 65 1004.1
20260504042153 16 238 4.8 8.0 0.00 0.00 0.00 65 1004.1
20260504041638 16 228 6.4 8.0 0.00 0.00 0.00 65 1004.0
20260504041145 16 225 6.4 9.7 0.00 0.00 0.00 65 1004.0
20260504040639 16 234 6.4 9.7 0.00 0.00 0.00 65 1004.0
20260504040137 16 234 6.4 8.0 0.00 0.00 0.00 65 1004.2
20260504035711 16 236 4.8 8.0 0.00 0.00 0.00 65 1004.2
20260504035143 16 234 4.8 8.0 0.00 0.00 0.00 64 1004.2
20260504034648 16 234 4.8 11.3 0.00 0.00 0.00 65 1004.2
20260504034145 16 247 4.8 11.3 0.00 0.00 0.00 65 1004.2
20260504033649 16 227 3.2 8.0 0.00 0.00 0.00 65 1004.2
20260504033214 16 226 4.8 8.0 0.00 0.00 0.00 65 1004.2
20260504032700 16 225 4.8 8.0 0.00 0.00 0.00 65 1004.2
20260504032148 16 232 4.8 9.7 0.00 0.00 0.00 65 1004.2
20260504031639 16 225 4.8 9.7 0.00 0.00 0.00 64 1004.2
20260504031208 16 221 4.8 9.7 0.00 0.00 0.00 64 1004.2
20260504030640 16 220 4.8 9.7 0.00 0.00 0.00 64 1004.2
20260504030207 16 225 6.4 9.7 0.00 0.00 0.00 64 1004.2
20260504025637 16 234 6.4 8.0 0.00 0.00 0.00 64 1004.2
20260504025151 16 240 6.4 11.3 0.00 0.00 0.00 64 1004.2
20260504024636 16 225 6.4 11.3 0.00 0.00 0.00 64 1004.2
20260504024146 16 227 6.4 11.3 0.00 0.00 0.00 65 1004.2
20260504023638 16 240 6.4 9.7 0.00 0.00 0.00 65 1004.2
20260504023148 16 227 6.4 9.7 0.00 0.00 0.00 65 1004.2
20260504022637 16 228 6.4 8.0 0.00 0.00 0.00 64 1004.2
20260504022209 16 226 4.8 8.0 0.00 0.00 0.00 64 1004.2
20260504021635 16 229 6.4 8.0 0.00 0.00 0.00 63 1004.2
20260504021147 16 221 4.8 8.0 0.00 0.00 0.00 63 1004.2
20260504020635 16 227 4.8 8.0 0.00 0.00 0.00 63 1004.2
20260504020148 16 227 3.2 6.4 0.00 0.00 0.00 62 1004.2
20260504015639 17 227 3.2 8.0 0.00 0.00 0.00 62 1004.2
20260504015150 17 227 4.8 8.0 0.00 0.00 0.00 62 1004.2
20260504014640 17 217 4.8 8.0 0.00 0.00 0.00 61 1004.2
20260504014149 17 225 4.8 8.0 0.00 0.00 0.00 61 1004.2
20260504013658 17 236 4.8 9.7 0.00 0.00 0.00 61 1004.2
20260504013145 17 232 6.4 9.7 0.00 0.00 0.00 61 1004.1
20260504012637 17 227 4.8 8.0 0.00 0.00 0.00 60 1004.1
20260504012149 17 232 4.8 8.0 0.00 0.00 0.00 60 1004.1
20260504011639 18 220 6.4 9.7 0.00 0.00 0.00 59 1003.8
20260504011147 18 225 4.8 9.7 0.00 0.00 0.00 58 1003.8
20260504010713 18 231 6.4 9.7 0.00 0.00 0.00 58 1003.8
20260504010206 18 237 6.4 9.7 0.00 0.00 0.00 58 1003.9
20260504005715 18 245 6.4 14.5 0.00 0.00 0.00 57 1003.9
20260504005159 18 232 8.0 14.5 0.00 0.00 0.00 57 1003.9
20260504004704 18 251 8.0 14.5 0.00 0.00 0.00 56 1003.7
20260504004214 19 234 6.4 17.7 0.00 0.00 0.00 56 1003.8
20260504003642 19 234 6.4 19.3 0.00 0.00 0.00 56 1003.8
20260504003153 19 237 11.3 19.3 0.00 0.00 0.00 55 1003.9
20260504002642 19 259 8.0 17.7 0.00 0.00 0.00 54 1003.9
20260504002151 19 221 9.7 17.7 0.00 0.00 0.00 54 1003.9
20260504001643 20 232 6.4 17.7 0.00 0.00 0.00 54 1003.7
20260504001153 20 273 9.7 16.1 0.00 0.00 0.00 54 1003.7
20260504000702 20 225 8.0 16.1 0.00 0.00 0.00 54 1003.7
20260504000153 20 242 8.0 20.9 0.00 0.00 0.00 53 1003.7
20260503235645 20 187 9.7 20.9 0.00 0.00 0.00 53 1003.7
20260503235214 20 221 8.0 20.9 0.00 0.00 0.00 54 1003.7
20260503234642 20 247 12.9 20.9 0.00 0.00 0.00 53 1003.8
20260503234152 20 260 6.4 19.3 0.00 0.00 0.00 54 1003.8
20260503233644 20 233 9.7 22.5 0.00 0.00 0.00 54 1003.8
20260503233137 20 236 6.4 22.5 0.00 0.00 0.00 55 1004.1
20260503232705 19 246 4.8 14.5 0.00 0.00 0.00 56 1004.1
20260503232157 19 243 9.7 14.5 0.00 0.00 0.00 55 1004.1
20260503231644 19 211 6.4 14.5 0.00 0.00 0.00 55 1004.1
20260503231154 19 245 6.4 11.3 0.00 0.00 0.00 55 1004.1
20260503230645 19 228 8.0 14.5 0.00 0.00 0.00 54 1004.1
20260503230137 19 254 6.4 19.3 0.00 0.00 0.00 54 1004.2
20260503225654 19 246 11.3 19.3 0.00 0.00 0.00 54 1004.2
20260503225204 19 219 9.7 17.7 0.00 0.00 0.00 53 1004.2
20260503224651 19 224 12.9 17.7 0.00 0.00 0.00 54 1004.2
20260503224142 19 240 9.7 17.7 0.00 0.00 0.00 53 1004.2
20260503223648 19 238 8.0 17.7 0.00 0.00 0.00 53 1004.2
20260503223137 19 200 9.7 17.7 0.00 0.00 0.00 52 1004.2
20260503222647 19 267 9.7 19.3 0.00 0.00 0.00 52 1004.2
20260503222144 19 234 8.0 22.5 0.00 0.00 0.00 52 1004.2
20260503221655 19 235 14.5 24.1 0.00 0.00 0.00 51 1004.5
20260503221204 19 250 16.1 24.1 0.00 0.00 0.00 51 1004.5
20260503220652 19 225 8.0 25.7 0.00 0.00 0.00 51 1004.5
20260503220142 19 221 11.3 27.4 0.00 0.00 0.00 51 1004.6
20260503215710 19 242 9.7 30.6 0.00 0.00 0.00 50 1004.6
20260503215142 20 294 14.5 30.6 0.00 0.00 0.00 49 1004.6
20260503214654 20 239 11.3 25.7 0.00 0.00 0.00 51 1004.6
20260503214147 19 254 11.3 27.4 0.00 0.00 0.00 50 1004.6
20260503213640 19 249 14.5 33.8 0.00 0.00 0.00 49 1004.6
20260503213149 19 232 17.7 33.8 0.00 0.00 0.00 49 1004.7
20260503212637 20 240 22.5 32.2 0.00 0.00 0.00 48 1004.7
20260503212146 19 225 17.7 32.2 0.00 0.00 0.00 48 1004.7
20260503211637 19 292 17.7 32.2 0.00 0.00 0.00 48 1004.7
20260503211145 19 221 17.7 33.8 0.00 0.00 0.00 49 1004.7
20260503210639 19 240 20.9 33.8 0.00 0.00 0.00 49 1004.7
20260503210148 19 255 17.7 38.6 0.00 0.00 0.00 48 1004.8
20260503205636 19 223 30.6 38.6 0.00 0.00 0.00 47 1004.8
20260503205148 19 226 20.9 40.2 0.00 0.00 0.00 48 1004.8
20260503204639 19 236 25.7 40.2 0.00 0.00 0.00 47 1005.0
20260503204147 19 259 14.5 29.0 0.00 0.00 0.00 48 1005.0
20260503203637 18 239 16.1 33.8 0.00 0.00 0.00 49 1004.9
20260503203146 18 186 20.9 32.2 0.00 0.00 0.00 47 1005.2
20260503202700 18 264 17.7 37.0 0.00 0.00 0.00 48 1005.2
20260503202149 18 264 20.9 37.0 0.00 0.00 0.00 47 1005.2
20260503201636 18 239 16.1 37.0 0.00 0.00 0.00 47 1005.2
20260503201151 18 341 12.9 35.4 0.00 0.00 0.00 47 1005.2
20260503200638 19 250 17.7 33.8 0.00 0.00 0.00 46 1005.3
20260503200148 19 274 22.5 32.2 0.00 0.00 0.00 47 1005.3
20260503195637 18 240 19.3 35.4 0.00 0.00 0.00 46 1005.2
20260503195147 19 219 14.5 43.5 0.00 0.00 0.00 46 1005.3
20260503194638 19 244 22.5 43.5 0.00 0.00 0.00 45 1005.8
20260503194149 19 227 29.0 40.2 0.00 0.00 0.00 45 1005.8
20260503193639 20 219 27.4 45.1 0.00 0.00 0.00 45 1005.8
20260503193152 20 240 24.1 45.1 0.00 0.00 0.00 47 1005.9
20260503192645 19 232 27.4 45.1 0.00 0.00 0.00 45 1005.9
20260503192133 19 206 22.5 45.1 0.00 0.00 0.00 45 1005.9
20260503191640 19 225 25.7 43.5 0.00 0.00 0.00 45 1005.7
20260503191151 18 220 19.3 38.6 0.00 0.00 0.00 45 1005.7
20260503190643 19 213 22.5 46.7 0.00 0.00 0.00 45 1005.7
20260503190152 19 196 24.1 46.7 0.00 0.00 0.00 45 1005.8
20260503185705 19 209 27.4 45.1 0.00 0.00 0.00 44 1005.8
20260503185138 19 238 16.1 38.6 0.00 0.00 0.00 47 1005.8
20260503184708 19 178 22.5 38.6 0.00 0.00 0.00 45 1006.3
20260503184142 19 210 16.1 41.8 0.00 0.00 0.00 47 1006.3
20260503183652 18 211 32.2 41.8 0.00 0.00 0.00 44 1006.3
20260503183142 18 209 20.9 43.5 0.00 0.00 0.00 45 1006.4
20260503182708 18 216 25.7 43.5 0.00 0.00 0.00 44 1006.4
20260503182135 18 205 25.7 46.7 0.00 0.00 0.00 45 1006.4
20260503181647 17 214 30.6 46.7 0.00 0.00 0.00 45 1006.7
20260503181137 18 242 29.0 45.1 0.00 0.00 0.00 47 1006.8
20260503180647 17 169 27.4 45.1 0.00 0.00 0.00 48 1006.7
20260503180139 17 214 30.6 40.2 0.00 0.00 0.00 48 1007.0
20260503175649 17 196 25.7 45.1 0.00 0.00 0.00 50 1007.0
20260503175142 17 191 24.1 45.1 0.00 0.00 0.00 49 1007.0
20260503174651 17 175 20.9 38.6 0.00 0.00 0.00 51 1007.5
20260503174141 17 227 24.1 37.0 0.00 0.00 0.00 49 1007.5
20260503173646 17 183 22.5 41.8 0.00 0.00 0.00 51 1007.5
20260503173136 16 203 20.9 41.8 0.00 0.00 0.00 52 1008.4
20260503172645 16 202 17.7 41.8 0.00 0.00 0.00 52 1008.4
20260503172156 16 191 20.9 41.8 0.00 0.00 0.00 52 1008.4
20260503171645 16 202 25.7 40.2 0.00 0.00 0.00 52 1008.5
20260503171137 16 217 22.5 35.4 0.00 0.00 0.00 52 1008.5
20260503170645 16 200 17.7 33.8 0.00 0.00 0.00 52 1008.5
20260503170159 16 180 16.1 32.2 0.00 0.00 0.00 54 1009.2
20260503160150 14 201 17.7 27.4 0.00 0.00 0.00 57 1010.0
20260503150708 13 190 8.0 25.7 0.00 0.00 0.00 60 1010.7
20260503150155 13 243 11.3 24.1 0.00 0.00 0.00 60 1011.1
20260503140150 11 178 8.0 16.1 0.00 0.00 0.00 69 1011.7